TimeCDT,TemperatureF,Dew PointF,Humidity,Sea Level PressureIn,VisibilityMPH,Wind Direction,Wind SpeedMPH,Gust SpeedMPH,PrecipitationIn,Events,Conditions,WindDirDegrees,DateUTC
12:15 AM,47.3,28.6,48,30.06,10.0,South,10.4,-,N/A,,Clear,170,2012-10-11 05:15:00
12:55 AM,48.2,28.4,46,30.05,10.0,South,12.7,-,N/A,,Clear,170,2012-10-11 05:55:00
1:15 AM,48.2,29.1,48,30.05,10.0,South,12.7,18.4,N/A,,Clear,170,2012-10-11 06:15:00
1:55 AM,47.5,29.7,50,30.04,10.0,South,11.5,-,N/A,,Clear,170,2012-10-11 06:55:00
2:15 AM,47.7,30.0,50,30.04,10.0,South,12.7,-,N/A,,Clear,180,2012-10-11 07:15:00
2:35 AM,48.2,30.2,50,30.04,10.0,South,13.8,-,N/A,,Clear,180,2012-10-11 07:35:00
2:55 AM,47.8,30.6,51,30.04,10.0,South,15.0,-,N/A,,Clear,180,2012-10-11 07:55:00
3:15 AM,47.8,30.7,52,30.04,10.0,South,12.7,-,N/A,,Clear,180,2012-10-11 08:15:00
3:35 AM,47.3,30.9,53,30.04,10.0,South,12.7,-,N/A,,Clear,180,2012-10-11 08:35:00
3:55 AM,47.3,31.1,53,30.04,10.0,South,11.5,-,N/A,,Clear,170,2012-10-11 08:55:00
4:15 AM,46.9,31.1,54,30.03,10.0,South,13.8,-,N/A,,Clear,170,2012-10-11 09:15:00
4:35 AM,47.3,31.5,54,30.03,10.0,South,12.7,-,N/A,,Clear,170,2012-10-11 09:35:00
4:55 AM,47.1,31.5,55,30.03,10.0,South,9.2,-,N/A,,Clear,170,2012-10-11 09:55:00
5:15 AM,47.3,31.6,55,30.03,10.0,South,9.2,-,N/A,,Clear,170,2012-10-11 10:15:00
5:35 AM,47.3,31.6,55,30.03,10.0,South,10.4,-,N/A,,Clear,170,2012-10-11 10:35:00
5:55 AM,46.8,31.5,55,30.03,10.0,SSE,8.1,-,N/A,,Clear,150,2012-10-11 10:55:00
6:15 AM,46.2,31.6,57,30.02,10.0,SSE,10.4,-,N/A,,Clear,160,2012-10-11 11:15:00
6:35 AM,46.0,31.8,58,30.02,10.0,SSE,9.2,-,N/A,,Clear,160,2012-10-11 11:35:00
6:55 AM,45.9,32.0,58,30.02,10.0,South,11.5,-,N/A,,Clear,170,2012-10-11 11:55:00
7:15 AM,46.0,32.0,58,30.02,10.0,South,10.4,-,N/A,,Clear,170,2012-10-11 12:15:00
7:35 AM,45.7,32.0,59,30.03,10.0,South,8.1,-,N/A,,Clear,170,2012-10-11 12:35:00
7:55 AM,45.5,32.0,59,30.04,10.0,South,5.8,-,N/A,,Clear,170,2012-10-11 12:55:00
8:15 AM,45.9,32.4,59,30.04,10.0,South,5.8,-,N/A,,Clear,180,2012-10-11 13:15:00
8:35 AM,46.4,32.5,59,30.04,10.0,SSE,4.6,-,N/A,,Clear,160,2012-10-11 13:35:00
8:55 AM,45.9,32.9,61,30.05,10.0,SSE,6.9,-,N/A,,Clear,160,2012-10-11 13:55:00
9:15 AM,49.1,33.4,55,30.05,10.0,SSE,6.9,-,N/A,,Clear,160,2012-10-11 14:15:00
9:35 AM,53.1,34.5,49,30.05,10.0,South,6.9,-,N/A,,Clear,170,2012-10-11 14:35:00
9:55 AM,55.4,34.3,45,30.06,10.0,SW,6.9,-,N/A,,Clear,220,2012-10-11 14:55:00
10:15 AM,57.0,35.1,44,30.07,10.0,West,4.6,-,N/A,,Clear,260,2012-10-11 15:15:00
10:35 AM,59.0,35.8,42,30.07,10.0,SW,3.5,-,N/A,,Clear,230,2012-10-11 15:35:00
10:55 AM,62.6,36.3,38,30.07,10.0,West,5.8,-,N/A,,Clear,270,2012-10-11 15:55:00
11:15 AM,63.0,37.2,38,30.07,10.0,WSW,9.2,-,N/A,,Clear,240,2012-10-11 16:15:00
11:35 AM,63.7,37.9,39,30.07,10.0,West,10.4,-,N/A,,Scattered Clouds,260,2012-10-11 16:35:00
11:55 AM,65.1,38.1,37,30.08,10.0,West,9.2,-,N/A,,Clear,280,2012-10-11 16:55:00
12:15 PM,65.1,37.6,36,30.08,10.0,WNW,5.8,-,N/A,,Clear,290,2012-10-11 17:15:00
12:55 PM,63.0,36.5,37,30.07,10.0,NNW,4.6,-,N/A,,Clear,340,2012-10-11 17:55:00
1:15 PM,63.7,36.3,36,30.08,10.0,NW,6.9,-,N/A,,Clear,320,2012-10-11 18:15:00
1:35 PM,64.0,35.6,35,30.08,10.0,NW,4.6,-,N/A,,Clear,310,2012-10-11 18:35:00
1:55 PM,62.2,35.6,37,30.08,10.0,North,8.1,-,N/A,,Clear,350,2012-10-11 18:55:00
2:15 PM,61.7,35.8,38,30.08,10.0,NNW,4.6,-,N/A,,Clear,330,2012-10-11 19:15:00
2:35 PM,62.6,36.1,37,30.08,10.0,North,6.9,-,N/A,,Clear,350,2012-10-11 19:35:00
2:55 PM,64.6,35.4,34,30.09,10.0,North,8.1,-,N/A,,Clear,10,2012-10-11 19:55:00
3:15 PM,63.9,34.7,34,30.08,10.0,North,9.2,-,N/A,,Scattered Clouds,10,2012-10-11 20:15:00
3:55 PM,65.1,33.3,31,30.08,10.0,NNE,13.8,19.6,0.03,,Scattered Clouds,20,2012-10-11 20:55:00
4:15 PM,64.4,32.9,31,30.09,10.0,North,16.1,-,N/A,,Clear,10,2012-10-11 21:15:00
4:55 PM,60.8,31.8,34,30.12,10.0,NNE,16.1,23.0,N/A,,Clear,20,2012-10-11 21:55:00
5:35 PM,59.2,32.0,36,30.13,10.0,North,17.3,25.3,N/A,,Clear,10,2012-10-11 22:35:00
5:55 PM,56.8,32.4,40,30.16,10.0,NNE,19.6,24.2,N/A,,Clear,20,2012-10-11 22:55:00
6:35 PM,54.5,32.0,42,30.18,10.0,NNE,15.0,23.0,N/A,,Mostly Cloudy,20,2012-10-11 23:35:00
6:55 PM,53.8,30.4,41,30.20,10.0,NNE,12.7,20.7,N/A,,Mostly Cloudy,20,2012-10-11 23:55:00
7:15 PM,53.6,30.2,41,30.20,10.0,North,11.5,-,N/A,,Overcast,10,2012-10-12 00:15:00
7:35 PM,52.9,30.0,42,30.21,10.0,NNE,13.8,19.6,N/A,,Overcast,20,2012-10-12 00:35:00
7:55 PM,52.0,28.9,41,30.23,10.0,NNE,17.3,23.0,N/A,,Overcast,20,2012-10-12 00:55:00
8:15 PM,51.4,27.5,40,30.24,10.0,North,15.0,21.9,N/A,,Overcast,10,2012-10-12 01:15:00
8:35 PM,50.9,26.6,39,30.25,10.0,North,12.7,21.9,N/A,,Overcast,10,2012-10-12 01:35:00
8:55 PM,50.2,26.8,40,30.26,10.0,NNE,13.8,19.6,N/A,,Overcast,20,2012-10-12 01:55:00
9:15 PM,50.0,26.4,40,30.28,10.0,NNE,15.0,21.9,N/A,,Overcast,20,2012-10-12 02:15:00
9:35 PM,49.3,27.0,42,30.29,10.0,North,11.5,25.3,N/A,,Overcast,10,2012-10-12 02:35:00
9:55 PM,49.1,27.5,43,30.29,10.0,NNE,13.8,21.9,N/A,,Overcast,20,2012-10-12 02:55:00
10:15 PM,49.1,28.0,44,30.30,10.0,NNE,13.8,20.7,N/A,,Overcast,30,2012-10-12 03:15:00
10:55 PM,48.4,27.7,45,30.32,10.0,NNE,13.8,20.7,N/A,,Overcast,30,2012-10-12 03:55:00
11:15 PM,48.2,27.1,44,30.33,10.0,NNE,15.0,20.7,N/A,,Overcast,30,2012-10-12 04:15:00
11:35 PM,47.8,26.8,44,30.33,10.0,NNE,13.8,18.4,N/A,,Overcast,20,2012-10-12 04:35:00
11:55 PM,47.3,24.6,41,30.34,10.0,NNE,12.7,21.9,N/A,,Overcast,30,2012-10-12 04:55:00